星链-36894(STARLINK-36894)

导读

STARLINK-36894(NORAD编号67972)是美国太空探索技术公司(SpaceX)星链(Starlink)星座中的一颗低轨通信卫星,采用Starlink V1.0卫星平台建造。该卫星运行在近地轨道,轨道倾角约70.003°,近地点约570.2km、远地点约573.9km,轨道周期约96.1分钟,每日绕地球运行近15圈。 作为星链全球卫星互联网项目的组成部分,它配备相控阵天线与星间激光链路技术,可提供高速低延迟的宽带通信服务,服务全球偏远地区互联网接入,并支持商业与行业通信需求,配备氩气离子推进系统,可实现轨道机动与任务结束后的安全脱轨。

基本信息
目录编号:
67972
目录名称:
STARLINK-36894
国际标识:
2026-038M
轨道中心:
EARTH
卫星名称:
星链-36894
卫星全名:
星链-36894(STARLINK-36894)
卫星状态:
在轨 (已飞行191 天)
发射日期:
2026-02-25 UTC
国别 :
美国 (US)
星等 :
--
轨道信息
数据来源 国际轨道数据 AOE轨道数据
星历时间 2026-09-03T08:17:13+0800
1天前
查看轨道信息
2026-09-02T15:00:00+0800
1天前
查看轨道信息
半长轴 6843.679km 6843.665km
偏心率 0.0001747 0.0002322
轨道倾角 97.285° 97.286°
近地点辐角 98.120° 67.991°
升交点赤经 254.607° 253.898°
平近点角 262.024° 278.450°
近地点 464.346km 463.938km
远地点 466.738km 467.118km
周期 93.906分钟 93.906分钟
每日圈数 15.334454 15.334503
详细信息
固有亮度:
5
最大亮度:
2.5
卫星平台:
Starlink V1.0
覆盖范围:
全球
运营商:
太空探索技术公司
运营商所在国:
美国
制造商(研发单位):
太空探索技术公司
制造商所在国:
美国
使用方式:
暂无
卫星简介
Starlink 计划是 SpaceX 推出的全球卫星互联网项目,通过发射低轨道卫星,为全球尤其是偏远地区提供高速、低延迟的互联网服务。自 2019 年起,Starlink 已部署数千颗卫星,旨在缩小全球数字鸿沟,推动互联网普及。该项目还为军事、航空等行业提供通信支持,带来广泛经济效益。
2D轨道图
3D轨道图
轨道高度分析图
轨道倾角分析图
轨道综合分析图
查看轨道综合分析图
交会数据列表
事件ID 空间交会对象 最接近时刻(TCA) 交会距离 交会风险概率(CRP) 交会风险指数(CRI) 操作
CDM_260904-112805-925506-797221
2026-09-04T
11:28:58+0000
2.314 km
极远距离
2.035756E-6 低风险 0.41
CDM_260905-021204-810406-797221
2026-09-05T
02:12:32+0000
2.932 km
极远距离
1.336113E-6 低风险 0.38
CDM_260902-054306-547406-797221
2026-09-02T
05:43:35+0000
2.847 km
极远距离
1.245243E-6 低风险 0.37